Hit Tracker is now ESPN Home Run Tracker! Hit Tracker founder Greg Rybarczyk is now collaborating with the ESPN Stats & Information Group to continue tracking all MLB home runs, and helping baseball fans know "How Far It Really Went!™" Please credit any information on this site to ESPN Stats & Information Group. For more information and analysis on home runs, please contact founder Greg Rybarczyk. E-Mail ESPN Home Run Tracker
Main Page | Ballparks | Park Overlays | Glossary | Highlight Homers | Feedback | Bio | 3 Types of HR's | AAA Home Run Derby Last Updated: July 20, 2017, 10:56 pm PST
If you want to know "How Far It Really Went!", then you've come to the right place! Welcome to the ESPN Home Run Tracker, where you can find accurate, transparently verifiable distances for every home run hit in MLB games. Please also check out the ESPN MLB Scoreboard throughout the 2017 season! Contact us at grybar@hittrackeronline.com.
Season:
Ballpark detail for Safeco Field
Ballpark # of Home Runs HR per game Avg.
True
Distance
Avg.
Speed
Off
Bat
Avg.
Std.
Dist.
Safeco Field 129 2.58 393.9 103 393.1

Scatter Plot of Home Runs Safeco Field
 Overlay Ballpark:
Without range rings   With range rings

2017 Season Home Runs for Safeco Field
Click headers to sort
Date Video Path Hitter Hitter
Team
Pitcher Pitcher
Team
INN Ballpark ^ Type/
Luck
True
Dist.
Speed
Off
Bat
Elev.
Angle
Horiz.
Angle
Apex Impact Due To: Std.
Dist.
#
Parks
Wind Temp. Alt.
04/12/17 Video View Motter, Taylor SEA Fiers, Mike HOU 3 Safeco Field PL 384 104.3 28.1 120.8 79 0 -2 0 386 30
04/12/17 Video View Freeman, Mike SEA Fiers, Mike HOU 2 Safeco Field PL 357 98.0 36.2 68.6 122 0 -3 0 360 23
04/11/17 Video View Springer, George HOU Miranda, Ariel SEA 1 Safeco Field PL 424 109.1 22.8 100.4 78 0 -1 0 424 30
04/14/17 Video View Cruz, Nelson SEA Perez, Martin TEX 4 Safeco Field JE 409 109.8 18.5 86.9 55 0 0 0 409 5
04/15/17 Video View Motter, Taylor SEA Hauschild, Mike TEX 6 Safeco Field ND 404 108.2 26.1 117.2 75 3 -1 0 403 30
04/16/17 Video View Choo, Shin-Soo TEX Iwakuma, Hisashi SEA 2 Safeco Field PL 407 102.9 32.6 74.8 117 8 -2 0 402 30
04/16/17 Video View Haniger, Mitch SEA Hamels, Cole TEX 3 Safeco Field PL 410 101.2 30.1 97.1 106 4 -2 0 407 21
04/16/17 Video View Heredia, Guillermo SEA Barnette, Tony TEX 7 Safeco Field PL 355 96.9 36.1 116.2 112 4 -2 0 353 18
04/16/17 Video View Mazara, Nomar TEX Diaz, Edwin SEA 9 Safeco Field PL 352 98.8 39.4 66.6 137 11 -2 0 343 10
04/17/17 Video View Cano, Robinson SEA Koehler, Tom MIA 1 Safeco Field ND 440 110.8 22.7 82.3 79 0 -1 0 441 30
04/17/17 Video View Cruz, Nelson SEA Koehler, Tom MIA 1 Safeco Field PL 415 104.8 22.8 88.2 75 0 -1 -1 416 21
04/17/17 Video View Motter, Taylor SEA Urena, Jose MIA 5 Safeco Field ND 409 106.2 30.5 111.8 107 0 -3 0 412 30
04/17/17 Video View Yelich, Christian MIA Scribner, Evan SEA 9 Safeco Field PL 387 102.1 27.6 110.1 82 0 -2 0 389 30
04/18/17 Video View Bour, Justin MIA Gallardo, Yovani SEA 3 Safeco Field PL 375 99.8 29.5 112.9 86 0 -2 0 377 29
04/19/17 Video View Stanton, Giancarlo MIA Hernandez, Felix SEA 3 Safeco Field ND 448 109.1 25.8 95.1 101 0 -2 0 450 30
04/19/17 Video View Yelich, Christian MIA Hernandez, Felix SEA 5 Safeco Field PL 415 107.3 23.7 102.0 75 0 -1 0 416 30
04/19/17 Video View Suzuki, Ichiro MIA Marshall, Evan SEA 9 Safeco Field JE 380 100.9 24.7 76.4 70 0 0 0 381 7
05/02/17 Video View Valencia, Danny SEA Shoemaker, Matt LAA 6 Safeco Field PL 384 101.0 32.5 110.8 108 0 -2 0 386 30
05/02/17 Video View Calhoun, Kole LAA Diaz, Edwin SEA 8 Safeco Field PL 363 98.9 34.7 63.4 110 0 -2 0 366 29
05/03/17 Video View Cano, Robinson SEA Nolasco, Ricky LAA 1 Safeco Field PL 361 96.8 30.8 62.7 82 4 0 0 357 19
05/03/17 Video View Segura, Jean SEA Nolasco, Ricky LAA 5 Safeco Field PL 376 107.5 24.6 126.2 62 -1 -1 0 377 30
05/03/17 Video View Trout, Mike LAA Iwakuma, Hisashi SEA 6 Safeco Field PL 413 103.0 25.6 94.2 88 -1 -1 0 415 20
05/03/17 Video View Calhoun, Kole LAA Diaz, Edwin SEA 9 Safeco Field JE 356 100.5 24.3 66.4 58 0 0 0 356 7
05/04/17 Video View Valencia, Danny SEA Wright, Daniel LAA 7 Safeco Field ND 413 106.2 29.6 110.7 101 0 -1 0 413 30
05/05/17 Video View Cano, Robinson SEA Darvish, Yu TEX 4 Safeco Field PL 363 103.5 24.1 60.1 57 2 -1 0 361 15
05/05/17 Video View Odor, Rougned TEX Pagan, Emilio SEA 13 Safeco Field PL 395 107.4 24.1 69.2 70 -1 -2 0 399 30
05/06/17 Video View Gallo, Joey TEX De Jong, Chase SEA 2 Safeco Field ND 424 108.2 24.9 76.2 80 1 -1 0 424 30
05/06/17 Video View Napoli, Mike TEX Altavilla, Dan SEA 9 Safeco Field PL 372 100.9 33.4 107.8 121 -10 -5 0 387 30
05/07/17 Video View Seager, Kyle SEA Dyson, Sam TEX 8 Safeco Field JE/L 395 98.5 32.5 79.7 107 10 -2 0 386 16
05/15/17 Video View Cruz, Nelson SEA Manaea, Sean OAK 2 Safeco Field PL 431 105.4 26.3 89.9 98 0 -2 0 433 30
05/15/17 Video View Davis, Khris OAK Gallardo, Yovani SEA 4 Safeco Field PL 431 105.8 25.5 88.7 94 0 -2 0 433 29
05/15/17 Video View Vogt, Stephen OAK Gallardo, Yovani SEA 5 Safeco Field JE 367 97.0 29.1 72.4 84 0 -2 0 369 12
05/15/17 Video View Seager, Kyle SEA Hendriks, Liam OAK 8 Safeco Field JE 400 102.6 23.2 85.0 72 0 -1 0 401 8
05/16/17 Video View Cruz, Nelson SEA Triggs, Andrew OAK 1 Safeco Field JE 396 103.6 23.2 80.3 69 0 -1 0 397 19
05/16/17 Video View Healy, Ryon OAK De-Jong, Chase SEA 2 Safeco Field ND 432 110.3 30.4 107.9 121 0 -5 0 437 30
05/16/17 Video View Seager, Kyle SEA Madson, Ryan OAK 8 Safeco Field PL 355 97.8 36.6 71.0 126 0 -5 0 360 19
05/16/17 Video View Joyce, Matt OAK Cishek, Steve SEA 9 Safeco Field JE/L 389 108.7 20.3 76.9 54 0 -1 -1 390 13
05/16/17 Video View Canha, Mark OAK Rzepczynski, Marc SEA 9 Safeco Field JE 401 102.0 24.0 95.1 76 0 -1 0 401 5
05/18/17 Video View Dyson, Jarrod SEA Covey, Dylan CHW 3 Safeco Field JE 359 100.5 24.6 66.7 59 0 0 0 358 8
05/18/17 Video View Segura, Jean SEA Covey, Dylan CHW 5 Safeco Field PL 393 106.8 25.3 115.3 70 0 -1 0 394 30
05/18/17 Video View Davidson, Matt CHW Lawrence, Casey SEA 7 Safeco Field JE/L 350 98.5 38.6 110.1 137 3 -3 0 350 6
05/18/17 Video View Frazier, Todd CHW Altavilla, Dan SEA 8 Safeco Field PL 378 101.1 31.9 117.5 98 0 -2 0 380 30
05/18/17 Video View Anderson, Tim CHW Altavilla, Dan SEA 8 Safeco Field PL 377 100.7 25.7 72.5 71 0 -1 0 377 19
05/19/17 Video View Abreu, Jose CHW Miranda, Ariel SEA 6 Safeco Field ND 444 112.0 25.9 104.8 98 -3 0 0 448 30
05/20/17 Video View Garcia, Avisail CHW Gallardo, Yovani SEA 1 Safeco Field JE 362 95.5 32.5 111.5 95 3 1 0 358 4
05/20/17 Video View Garcia, Avisail CHW Gallardo, Yovani SEA 3 Safeco Field JE/L 391 97.2 29.9 84.0 94 5 0 0 386 1
05/20/17 Video View Davidson, Matt CHW Overton, Dillon SEA 7 Safeco Field PL 375 99.0 34.2 115.6 107 8 -1 0 368 27
05/20/17 Video View Garcia, Willy CHW Overton, Dillon SEA 7 Safeco Field ND 392 106.7 32.2 117.3 116 -12 -1 0 406 30
05/21/17 Video View Anderson, Tim CHW Heston, Chris SEA 3 Safeco Field JE 354 95.9 36.8 113.0 118 4 2 0 348 2
05/21/17 Video View Cruz, Nelson SEA Holland, Derek CHW 7 Safeco Field PL 394 99.7 30.3 103.7 98 4 1 0 390 20
06/01/17 Video View Reynolds, Mark COL Gallardo, Yovani SEA 2 Safeco Field ND 450 107.6 30.3 100.7 113 16 -2 0 435 30
06/01/17 Video View Heredia, Guillermo SEA Freeland, Kyle COL 2 Safeco Field JE 366 103.9 23.3 114.4 54 2 0 0 365 8
06/01/17 Video View Arenado, Nolan COL Gallardo, Yovani SEA 3 Safeco Field PL 391 99.1 33.4 111.5 101 17 -1 0 374 25
06/02/17 Video View Motter, Taylor SEA Odorizzi, Jake TB 1 Safeco Field JE 351 102.3 24.0 122.1 56 -1 0 0 351 7
06/02/17 Video View Valencia, Danny SEA Odorizzi, Jake TB 3 Safeco Field JE 369 102.7 23.7 111.1 60 1 0 0 369 9
06/02/17 Video View Rasmus, Colby TB Bergman, Christian SEA 4 Safeco Field PL 403 101.7 33.1 76.6 119 6 0 0 396 29
06/02/17 Video View Beckham, Tim TB Bergman, Christian SEA 4 Safeco Field PL 394 103.6 24.5 75.7 69 1 0 0 394 25
06/02/17 Video View Kiermaier, Kevin TB Pazos, James SEA 7 Safeco Field JE 396 101.9 23.7 83.6 69 0 0 0 396 4
06/03/17 Video View Dickerson, Corey TB Gaviglio, Sam SEA 1 Safeco Field JE/L 361 97.5 26.3 71.6 67 1 0 0 361 8
06/03/17 Video View Cruz, Nelson SEA Cobb, Alex TB 5 Safeco Field JE 388 100.4 25.8 101.7 77 0 -1 0 388 12
06/03/17 Video View Zunino, Mike SEA Cobb, Alex TB 5 Safeco Field ND 444 114.2 29.7 115.3 111 1 -2 0 446 30
06/03/17 Video View Morrison, Logan TB Diaz, Edwin SEA 9 Safeco Field PL 420 104.2 30.2 78.5 110 5 -2 0 417 29
06/04/17 Video View Cruz, Nelson SEA Ramirez, Erasmo TB 1 Safeco Field PL 429 107.5 22.2 90.2 75 0 -1 0 430 28
06/06/17 Video View Cano, Robinson SEA Santiago, Hector MIN 1 Safeco Field JE 383 106.1 22.0 73.4 56 0 0 0 383 14
06/06/17 Video View Seager, Kyle SEA Wimmers, Alex MIN 4 Safeco Field PL 349 93.4 36.6 65.7 105 9 2 0 338 1
06/06/17 Video View Dozier, Brian MIN Paxton, James SEA 4 Safeco Field PL 352 99.8 39.8 117.6 137 7 4 0 341 9
06/07/17 Video View Ruiz, Carlos SEA Mejia, Adalberto MIN 3 Safeco Field ND 422 108.7 31.4 123.3 99 10 2 0 410 30
06/07/17 Video View Zunino, Mike SEA Mejia, Adalberto MIN 3 Safeco Field PL 389 100.0 35.5 113.8 114 18 2 0 370 27
06/07/17 Video View Sano, Miguel MIN Gallardo, Yovani SEA 5 Safeco Field PL 412 105.3 28.1 104.6 100 -5 1 0 417 30
06/07/17 Video View Seager, Kyle SEA Duffey, Tyler MIN 6 Safeco Field ND 429 111.0 25.6 70.0 83 0 0 0 429 30
06/07/17 Video View Zunino, Mike SEA Kintzler, Brandon MIN 9 Safeco Field ND 436 106.5 25.4 84.5 86 2 0 0 433 28
06/08/17 Video View Castro, Jason MIN Bergman, Christian SEA 4 Safeco Field PL 403 100.6 30.9 72.4 95 14 -1 0 390 29
06/09/17 Video View Bautista, Jose TOR Gaviglio, Sam SEA 3 Safeco Field ND 391 107.3 26.6 123.8 72 0 -1 0 391 30
06/10/17 Video View Morales, Kendrys TOR Miranda, Ariel SEA 4 Safeco Field ND 435 114.2 22.1 104.3 74 -2 -1 0 437 30
06/10/17 Video View Carrera, Ezequiel TOR Zych, Tony SEA 8 Safeco Field PL 378 98.4 32.6 74.9 109 -1 -1 0 380 27
06/10/17 Video View Smoak, Justin TOR Cishek, Steve SEA 9 Safeco Field PL 387 103.9 23.3 75.9 66 0 0 0 388 23
06/11/17 Video View Donaldson, Josh TOR Paxton, James SEA 1 Safeco Field PL 355 95.5 29.7 65.4 76 4 -1 0 352 11
06/19/17 Video View Heredia, Guillermo SEA Sanchez, Anibal DET 5 Safeco Field JE 396 103.1 23.0 98.2 68 0 0 0 395 6
06/19/17 Video View Zunino, Mike SEA Wilson, Alex DET 6 Safeco Field ND 400 113.7 21.7 116.2 57 0 0 0 400 30
06/19/17 Video View Zunino, Mike SEA Rodriguez, Francisco DET 8 Safeco Field JE 411 107.5 19.8 87.8 61 0 0 0 411 7
06/20/17 Video View Kinsler, Ian DET Miranda, Ariel SEA 1 Safeco Field ND 397 106.1 30.0 121.5 92 0 -1 0 399 30
06/20/17 Video View Upton, Justin DET Miranda, Ariel SEA 2 Safeco Field PL 413 102.2 27.2 94.4 95 0 -1 0 414 23
06/20/17 Video View Motter, Taylor SEA Zimmermann, Jordan DET 2 Safeco Field JE 347 96.8 28.4 120.4 69 0 -1 0 348 8
06/20/17 Video View Gamel, Ben SEA Stumpf, Daniel DET 7 Safeco Field PL 413 105.1 22.2 87.2 71 0 0 0 413 17
06/20/17 Video View Martinez, J.D. DET Altavilla, Dan SEA 8 Safeco Field PL 400 102.4 27.4 76.1 88 0 -1 0 401 29
06/21/17 Video View McCann, James DET Paxton, James SEA 3 Safeco Field JE 339 93.7 30.0 63.6 76 -1 0 0 340 4
06/21/17 Video View Haniger, Mitch SEA Greene, Shane DET 7 Safeco Field JE 395 107.6 21.5 103.9 62 2 0 0 393 18
06/21/17 Video View Kinsler, Ian DET Diaz, Edwin SEA 9 Safeco Field PL 400 102.3 27.0 101.0 93 -3 0 0 404 30
06/22/17 Video View Kinsler, Ian DET Moore, Andrew SEA 3 Safeco Field PL 370 100.2 29.1 117.9 81 -1 0 0 371 29
06/22/17 Video View Cano, Robinson SEA Norris, Daniel DET 3 Safeco Field JE/L 397 99.2 26.8 87.5 86 1 0 0 396 1
06/22/17 Video View Cano, Robinson SEA Rodriguez, Francisco DET 7 Safeco Field JE 392 99.3 26.9 82.9 85 -1 0 0 392 11
06/22/17 Video View Cabrera, Miguel DET Povse, Max SEA 8 Safeco Field JE 396 99.1 28.8 86.6 98 -1 0 0 398 6
06/23/17 Video View Altuve, Jose HOU Hernandez, Felix SEA 1 Safeco Field PL 381 101.0 29.8 112.6 93 -4 1 0 384 30
06/23/17 Video View Zunino, Mike SEA Musgrove, Joe HOU 3 Safeco Field PL 398 103.2 28.4 106.4 97 -7 1 0 403 30
06/23/17 Video View Gamel, Ben SEA Musgrove, Joe HOU 4 Safeco Field PL 412 108.4 21.6 100.4 66 2 1 0 410 25
06/23/17 Video View Seager, Kyle SEA Musgrove, Joe HOU 4 Safeco Field ND 428 106.9 26.2 79.2 92 -1 1 0 428 29
06/23/17 Video View Bregman, Alex HOU Hernandez, Felix SEA 5 Safeco Field PL 425 104.1 26.1 91.0 94 0 1 0 425 28
06/24/17 Video View Reddick, Josh HOU Gaviglio, Sam SEA 3 Safeco Field PL 416 102.3 26.1 90.9 88 2 1 0 414 21
06/25/17 Video View Springer, George HOU Miranda, Ariel SEA 4 Safeco Field PL 446 107.8 25.1 90.3 93 0 1 0 444 30
06/25/17 Video View Gurriel, Yulieski HOU Miranda, Ariel SEA 4 Safeco Field ND 403 105.5 31.8 117.6 105 0 3 0 400 30
06/25/17 Video View Gattis, Evan HOU Pazos, James SEA 9 Safeco Field ND 437 110.2 26.5 107.4 91 0 3 0 434 30
06/27/17 Video View Segura, Jean SEA Nola, Aaron PHI 3 Safeco Field JE 372 98.8 26.5 72.8 71 1 0 0 371 10
06/27/17 Video View Franco, Maikel PHI Paxton, James SEA 7 Safeco Field PL 390 100.6 30.1 108.8 94 2 0 0 388 30
06/27/17 Video View Altherr, Aaron PHI Diaz, Edwin SEA 9 Safeco Field PL 404 102.6 31.3 104.4 111 0 0 0 404 30
06/28/17 Video View Kelly, Ty PHI Hernandez, Felix SEA 3 Safeco Field PL 399 101.8 27.5 73.4 81 6 -1 0 393 27
06/28/17 Video View Seager, Kyle SEA Leiter Jr., Mark PHI 4 Safeco Field PL 396 104.2 25.4 74.0 78 -2 -1 0 399 30
06/28/17 Video View Valencia, Danny SEA Leiter Jr., Mark PHI 4 Safeco Field ND 428 111.2 27.6 108.7 106 -10 -1 0 440 30
06/28/17 Video View Cano, Robinson SEA Leiter Jr., Mark PHI 5 Safeco Field PL 415 105.0 23.6 84.2 81 -1 0 0 416 28
06/28/17 Video View Joseph, Tommy PHI Diaz, Edwin SEA 9 Safeco Field PL 367 103.2 34.1 111.4 130 -21 -2 0 391 30
07/03/17 Video View Moustakas, Mike KC Moore, Andrew SEA 2 Safeco Field ND 402 104.2 34.2 67.1 120 10 -1 0 393 30
07/03/17 Video View Gordon, Alex KC Moore, Andrew SEA 5 Safeco Field JE/L 343 92.2 35.1 66.6 97 7 -1 0 337 1
07/04/17 Video View Merrifield, Whit KC Hernandez, Felix SEA 1 Safeco Field JE 388 102.2 24.9 105.1 71 1 0 0 386 19
07/04/17 Video View Moustakas, Mike KC Hernandez, Felix SEA 4 Safeco Field PL 398 105.2 24.0 74.6 68 0 1 0 397 29
07/05/17 Video View Moustakas, Mike KC Miranda, Ariel SEA 1 Safeco Field JE/L 368 95.3 36.3 75.2 116 11 3 0 355 1
07/05/17 Video View Zunino, Mike SEA Vargas, Jason KC 2 Safeco Field PL 376 99.6 33.1 113.7 106 -1 2 0 375 29
07/05/17 Video View Segura, Jean SEA Vargas, Jason KC 2 Safeco Field JE 407 100.9 27.0 89.4 93 -2 1 0 408 12
07/05/17 Video View Cruz, Nelson SEA Vargas, Jason KC 3 Safeco Field ND 418 105.5 28.9 106.8 100 0 2 0 416 30
07/05/17 Video View Cain, Lorenzo KC Miranda, Ariel SEA 5 Safeco Field ND 422 110.3 24.2 107.8 76 -1 0 0 422 30
07/05/17 Video View Perez, Salvador KC Pazos, James SEA 10 Safeco Field PL 366 96.4 31.5 71.1 94 -1 0 0 366 15
07/06/17 Video View Davis, Khris OAK Gaviglio, Sam SEA 5 Safeco Field JE/L 362 94.3 35.1 72.0 106 9 2 0 352 1
07/06/17 Video View Maxwell, Bruce OAK Gaviglio, Sam SEA 5 Safeco Field JE 390 104.8 23.3 105.3 63 0 0 0 389 21
07/06/17 Video View Haniger, Mitch SEA Blackburn, Paul OAK 5 Safeco Field JE/L 352 93.3 32.4 70.4 90 1 1 0 350 1
07/06/17 Video View Valencia, Danny SEA Coulombe, Daniel OAK 9 Safeco Field JE 403 104.1 22.3 96.1 68 1 0 0 402 5
07/07/17 Video View Cruz, Nelson SEA Hendriks, Liam OAK 8 Safeco Field PL 431 112.0 21.2 99.6 69 1 0 0 430 30
07/08/17 Video View Alonso, Yonder OAK Moore, Andrew SEA 3 Safeco Field ND 411 107.0 25.2 71.8 75 1 1 0 409 30
07/08/17 Video View Semien, Marcus OAK Moore, Andrew SEA 5 Safeco Field JE/L 338 96.0 37.4 115.3 120 -8 1 0 345 13
07/08/17 Video View Dyson, Jarrod SEA Smith, Chris OAK 5 Safeco Field PL 398 101.1 27.9 79.1 92 -2 0 0 400 28
07/09/17 Video View Cruz, Nelson SEA Gossett, Daniel OAK 4 Safeco Field PL 407 99.3 31.7 87.1 108 9 0 0 398 5
07/20/17 Video View Gardner, Brett NYY Hernandez, Felix SEA 6 Safeco Field PL 404 106.4 23.8 75.3 70 0 0 0 404 29


About HitTracker | Contact Us
© 2006-2017 HitTrackerOnline